Home > Weather > Kolonia > Past weeks

Flag for Micronesia Weather for the Past 2 Weeks in Kolonia, Pohnpei, Micronesia

Now
78 °F

Sprinkles. Mostly cloudy.


Feels Like: 81 °F
Forecast: 81 / 86 °F
Wind: 3 mph from South

Location: Pohnpei

Current Time: May 7, 2016 at 5:48:01 AM

Latest Report: May 7, 2016 at 4:54 AM


Visibility: 12 mi

Pressure: 29.83 "Hg

Humidity: 95%

Dew Point: 76 °F

Location of KoloniaLocation

Historic Weather in Kolonia — Graph

°F

Kolonia Temperature Yesterday

Maximum temperature yesterday: 88 °F (at 1:53 PM)
Minimum temperature yesterday: 80 °F (at 4:52 AM)
Average temperature yesterday: 83 °F

High & Low Weather Summary for the Past Weeks

 TemperatureHumidityPressure
High89 °F (Apr 28, 12:51 PM)96% (Apr 24, 1:54 AM)29.93 "Hg (Apr 24, 1:54 AM)
Low76 °F (May 1, 11:54 PM)54% (May 2, 1:52 PM)29.79 "Hg (Apr 22, 3:53 PM)
Average83 °F81%29.86 "Hg
* Reported Apr 22 4:52 AM — May 7 4:54 AM, Kolonia, Weather by CustomWeather, © 2016

Note: Actual official high and low records may vary slightly from our data, if they occured in-between our weather recording intervals... More about our weather records

Advertising

Kolonia Weather History for the Previous 24 Hours

Scroll right to see more
 ConditionsComfort  
Time TempWeatherWind HumidityBarometerVisibility
4:54 AM
Sat, May 7
78 °FSprinkles. Mostly cloudy.3 mph95%29.83 "Hg12 mi
3:53 AM78 °FSprinkles. Mostly cloudy.3 mph90%29.83 "Hg12 mi
2:50 AM79 °FPassing clouds.3 mph91%29.83 "Hg15 mi
1:50 AM79 °FPassing clouds.3 mph91%29.83 "Hg15 mi
12:53 AM81 °FPassing clouds.3 mph77%29.85 "Hg15 mi
11:55 PM
Fri, May 6
81 °FPassing clouds.6 mph86%29.87 "Hg15 mi
10:56 PM82 °FPassing clouds.5 mph84%29.88 "Hg15 mi
9:58 PM82 °FPassing clouds.5 mph84%29.89 "Hg15 mi
8:56 PM83 °FPassing clouds.5 mph81%29.88 "Hg15 mi
7:56 PM82 °FPassing clouds.3 mph83%29.85 "Hg15 mi
6:57 PM83 °FPassing clouds.3 mph79%29.83 "Hg15 mi
5:56 PM84 °FScattered clouds.7 mph77%29.81 "Hg15 mi
4:58 PM86 °FScattered clouds.7 mph77%29.80 "Hg15 mi
3:52 PM87 °FMostly cloudy.7 mph76%29.79 "Hg15 mi
2:52 PM88 °FMostly cloudy.9 mph72%29.80 "Hg15 mi
1:53 PM88 °FMostly cloudy.9 mph73%29.81 "Hg15 mi
12:52 PM87 °FMostly cloudy.7 mph83%29.83 "Hg15 mi
11:56 AM87 °FMostly cloudy.5 mph80%29.85 "Hg15 mi
10:52 AM86 °FCloudy.5 mph80%29.88 "Hg15 mi
7:51 AM82 °FPartly sunny.3 mph87%29.86 "Hg15 mi
6:53 AM81 °FBroken clouds.5 mph92%29.85 "Hg15 mi
5:52 AM80 °FMostly cloudy.7 mph92%29.83 "Hg15 mi
Weather by CustomWeather, © 2016

See weather overviewHow to use our weather pages